AQI (34)

Current Conditions for Foresthill, CA. Dusk, Clear skies, Dry   
Visibility: 10 miles
Space WX Alerts: SUMMARY:  Proton Event 10MeV Integral Flux exceeded 10pfu ( Latest Alert ) - Issue Time: 2022 Jan 20 2120 UTC

  Summary / Temperature 

Current Temperature
51.4°F
10.8°C
(24/hr Ago)
50.2°F
(Apparent temp)
49.9°F
Cool
Wind Chill Graphs
51.5°F 

51.4°F/ 10.8°C
 --- Virtual Temp: 53.5°F ---

 Temp Rate:

 24/hr Difference:

 Avg Running Temp:

 Todays High:

 Todays Low:

 Y-days High:

 Y-days Low:

 Todays WChill:

 Y-days WChill:

 Evapotranspiration:

-3.3°F/hr 

+1.2°F

55.5°F

63.9°F 1:26pm

41.8°F 6:36am

57.8°F 1:59pm

39.3°F 7:10am

37.3°F 8:39am

31.2°F 7:03am

0.063 in

115' Above Ground

 Temperature:

 6'AGL VRS 115'AGL:

 Avg Running Temp:

 Humidity:

 Todays High:

 Todays Low:

 Y-days High:

 Y-days Low:

57.0°F 

+5.6°F

58.2°F

60% 

64.0°F 1:37pm

54.0°F 9:31am

58.0°F 2:22pm

50.0°F 10:10am

Temp & Humidity Graphs

  Wind 

Wind Speed

 Calm

Gusting to

 None

Calm

292°  

Calm

 Avg speed:

 Wind Run:

 Peak Gust:

Calm 

10.0 miles

  12.0 mph 9:32am

  Almanac  

Moon age: 17 days,15 hours,15 minutes,91%

Waning Gibbous
91%
Illuminated
17 days in cycle

 Moonrise:

 Moonset:

 Sunrise:

 Sunset:

 Solar Noon:

8:00pm

9:16am

7:16am

5:08pm

12:15pm

1min 40s more daylight tomorrow 

  Solar Radiation 

(Current Solar)
  No Sun Light
(Todays High)
 508 W/m2@12:08pm

Rain

 Rain Today:

 Rain Rate (/hr):

 Rain last hour:

 Rain Yesterday:

 This Month:

 Season Total:

12 Days Since Last Rain Day

0.00 in

0.000 in

0.00 in

0.00 in

1.20 in

29.66 in

Updated Time

Updated: 1/20/22  5:20pm

(Updated  sec ago)

Humidity & Barometer

 Humidity:

 Wetbulb:

 Dew Point:

 Barometer:

74% 

47.5°F 

43.4°F 

30.316 inHg 

 Baro Trend:  Steady 
Northern Calif
Preparedness
Fire 
Level 

    UV Index  

(Current UV)
0.0  None
(Todays High) @ 12:06pm
2.0   Low

National Weather Service Forecast

Tonight

Mostly Clear
Mostly Clear
Friday

Sunny
Sunny
Friday
Night
Mostly Clear
Mostly Clear
Saturday

Mostly Sunny
Mostly Sunny
Saturday
Night
Clear
Clear
Sunday

Sunny
Sunny
Lo ≈40°F Hi ≈63°F Lo ≈40°F Hi ≈60°F Lo ≈40°F Hi ≈59°F

Foresthill Probe 2 Stats  
Foresthill Probe 2: is located on Thomas Street
at 3000 feet. The main Foresthill Weather site
is located on Melody ln at the 2860 foot elevation

Calm
49.1°F
9.5°C
Temp Rate:
-2.6°F
Calm
Gusting to
None
(Humidity)
82%
Calm
215°  
Updated: 20/01/22 - 17:21:49
 Todays High: 59.7°F 13:39
 Todays Low: 40.6°F 07:32
 Rain Today: 0.00 in
 Season Total: 29.24 in

Foresthill Wx: Monthly,Yearly, Highs and Lows 

Foresthill  
This Weather Data is coming from the main Foresthill
Weather site located on Melody ln at the 2860 foot
elevation
Not Foresthill Probe 2
Weather Data
Month
  High
Month
  Low
Year
High
Year
Low
Temp 67.7°F
1/12/22
27.3°F
1/1/22
67.7°F
1/12/22
27.3°F
1/1/22
Humidity 100%
1/4/22
22%
1/14/22
100%
1/4/22
22%
1/14/22
Heat Index 67.4°F
1/12/22
32.0°F
1/1/22
67.4°F
1/12/22
32.0°F
1/1/22
Wind Chill 67.7°F
1/12/22
14.3°F
1/1/22
67.7°F
1/12/22
14.3°F
1/1/22
Wind Gust 30 mph
1/14/22
0 mph
1/1/22
30 mph
1/14/22
0 mph
1/1/22
Barometer 30.55 in
1/10/22
29.96 in
1/7/22
30.55 in
1/10/22
29.96 in
1/7/22
ET 0.10 in
1/14/22
0.00 in
1/1/22
0.10 in
1/14/22
0.00 in
1/1/22
Dew Point 48.2°F
1/6/22
21.6°F
1/15/22
48.2°F
1/6/22
21.6°F
1/15/22
Visible Satellite Pacific Satellite US Radar Satellite Imagery Sacramento,CA.  (click to enlarge)
NWS Weather Forecast - Summary
Updated: Thursday, January 20, 2022 - 2:44pm PST
NWS Weather Forecast: Tonight and Friday (Updated: Thu, 20-Jan-2022 2:01pm PST)
Tonight

Mostly Clear
Mostly Clear
Lo ≈40°F
NWS forecast: Mostly clear. Lows 37 to 43. Prevailing northeast winds up to 10 mph.
Friday

Sunny
Sunny
Hi ≈63°F
NWS forecast: Sunny. Highs 59 to 67. Prevailing northeast winds 5 to 15 mph.
YR.NO 10 Day Weather forecast
Last update: 01/20/2022 @ 13:22
Next update: 01/20/2022 @ 19:22
Provided by: 22
      Temperature Precipitation Pressure Wind  
Today
01/20/2022
15:00 18:00 57°F   30.25 inHg Light breeze from west 5 mph
  18:00 00:00 46°F   30.28 inHg Light air from east-northeast 2 mph
    (Click to enlarge)
meteogram

    Forecast for next 9 days

      Temperature Precip Pressure Wind  
Friday
01/21/2022
00:00 06:00 34°F   30.25 inHg Light breeze from east 4 mph
  06:00 12:00 30°F   30.17 inHg Gentle breeze from east-northeast 9 mph
  12:00 18:00 55°F   30.18 inHg Light breeze from north-northeast 5 mph
  18:00 00:00 45°F   30.16 inHg Light breeze from north 5 mph
      Temperature Precip Pressure Wind  
Saturday
01/22/2022
00:00 06:00 36°F   30.23 inHg Light breeze from northeast 6 mph
  06:00 12:00 41°F   30.20 inHg Fresh breeze from east-northeast 19 mph
  12:00 18:00 54°F   30.17 inHg Light breeze from east-northeast 5 mph
  16:00 22:00 54°F   30.15 inHg Light breeze from east-northeast 4 mph
  22:00 04:00 43°F   30.20 inHg Gentle breeze from east-northeast 9 mph
      Temperature Precip Pressure Wind  
Sunday
01/23/2022
04:00 10:00 30°F   30.23 inHg Light breeze from east-northeast 5 mph
  10:00 16:00 52°F   30.25 inHg Light air from east 1 mph
  16:00 22:00 52°F   30.21 inHg Light breeze from west-southwest 4 mph
  22:00 04:00 34°F   30.21 inHg Light breeze from east 6 mph
      Temperature Precip Pressure Wind  
Monday
01/24/2022
04:00 10:00 28°F   30.18 inHg Light breeze from east 5 mph
  10:00 16:00 52°F   30.17 inHg Light air from south-southeast 1 mph
  16:00 22:00 52°F   30.07 inHg Light air from west 2 mph
  22:00 04:00 30°F   30.10 inHg Light breeze from east 7 mph
      Temperature Precip Pressure Wind  
Tuesday
01/25/2022
04:00 10:00 27°F   30.09 inHg Light breeze from east-northeast 5 mph
  10:00 16:00 50°F   30.10 inHg Light air from east 2 mph
  16:00 22:00 55°F   30.02 inHg Light air from west-northwest 2 mph
  22:00 04:00 32°F   30.08 inHg Light breeze from east 6 mph
      Temperature Precip Pressure Wind  
Wednesday
01/26/2022
04:00 10:00 28°F   30.11 inHg Light breeze from east 4 mph
  10:00 16:00 55°F   30.16 inHg Light air from east-northeast 2 mph
  16:00 22:00 57°F   30.13 inHg Light air from west 2 mph
  22:00 04:00 34°F   30.18 inHg Light breeze from east 6 mph
      Temperature Precip Pressure Wind  
Thursday
01/27/2022
04:00 10:00 32°F   30.19 inHg Light breeze from east 6 mph
  10:00 16:00 55°F   30.24 inHg Light air from east-northeast 2 mph
  16:00 22:00 57°F   30.19 inHg Light air from west-southwest 3 mph
  22:00 04:00 34°F   30.19 inHg Light breeze from east 5 mph
      Temperature Precip Pressure Wind  
Friday
01/28/2022
04:00 10:00 34°F   30.13 inHg Light breeze from east 5 mph
  10:00 16:00 45°F < 0.01 in 30.12 inHg Light air from south-southwest 3 mph
  16:00 22:00 45°F   30.05 inHg Light breeze from west-northwest 6 mph
  22:00 04:00 30°F   30.11 inHg Light breeze from east-northeast 6 mph
      Temperature Precip Pressure Wind  
Saturday
01/29/2022
04:00 10:00 34°F   30.08 inHg Light breeze from northeast 7 mph
  10:00 16:00 46°F   30.11 inHg Light breeze from northeast 5 mph
  16:00 22:00 50°F   30.08 inHg Light breeze from east-northeast 4 mph

NOAA Local Storm Report
2 MILES WEST-NORTHWEST OF NICOLAUS   ( More )
DATE
01/16/2022
TIME
2:00 AM
COUNTY
SUTTER
STATE
CA
GEOGRAPHIC
38.92N 121.61W
SOURCE
LAW ENFORCEMENT
DENSE FOG
dense fog was reported at the time of a two-vehicle accident that resulted in 1 fatality and 1 major injury. Accident occurred at sr99 at sacramento ave. Ksmf reported 0. 25mi visibility around the time of the accident. Chp reported visibility less than 75ft at site.
How Close Are We To this Month's Temperature Record ?
Updated Thursday, Jan 20, 2022- 5:20:00 PM

Current Temperature: 51.4°F

January's High: Temperature Record 71.3°F - Set on Sat, Jan 24, 2015 - 3:19:00 PM
We are currently 19.9°F Less than this Month's record High

January's Low: Temperature Record 24.7°F - Set on Sun, Jan 13, 2013 - 7:29:00 AM
We are currently 26.7°F More than this Month's record Low

Weather History N/A


On this Day - In Weather History ...
Data courtesy of weatherforyou.com
powered by Cumulus v1.9.3 (1059)
Ambient Weather VWS v14.00
Top Website Map Copyright © 2007 - 2022 Foresthillweather.com Never base important decisions on this or any weather information obtained from the Internet